Wind_Speed
25 25 24 23 23 23 23 23 22 23 23 24 24 23 23 23 23 24 24 24 24 24 25 26 26 27 30 31 32 33 34 35 35 35 35 34 34 34 34 34 33 33 33 33 33 32 32 31 30 29 28 27 27 27 27 26 26 25 26 28 28 28 27 26 26 26 26 25 24
25 26 25 24 23 23 24 24 24 24 25 24 23 23 23 23 24 24 24 25 25 25 26 26 27 29 30 31 32 33 34 35 35 35 35 34 34 34 34 34 33 33 33 33 33 32 31 30 29 28 28 27 27 27 27 26 26 26 28 29 28 26 25 24 26 27 27 27 26
26 26 25 24 24 24 25 24 25 26 26 25 24 23 23 23 24 24 25 26 26 27 27 27 28 29 30 31 32 33 34 35 35 35 34 34 34 34 34 33 34 33 33 32 32 31 31 30 30 29 28 27 27 27 27 27 27 27 28 27 25 22 21 22 24 26 26 26 26
26 26 26 25 25 25 25 24 26 27 27 25 24 23 23 24 24 25 26 27 27 27 27 29 29 29 29 30 32 34 34 34 34 34 34 34 34 34 33 33 33 34 34 32 31 31 30 30 30 29 28 28 28 28 27 27 26 27 26 25 22 20 20 22 24 25 26 25 25
26 26 26 26 26 26 26 26 27 27 26 25 24 24 24 25 25 26 26 27 27 28 29 30 29 29 30 31 33 34 34 34 34 34 34 34 34 34 33 33 33 33 33 32 31 31 30 30 29 28 27 27 27 27 27 26 26 27 26 24 21 19 20 21 23 25 25 25 24
26 27 27 27 26 26 26 27 27 27 26 24 24 24 25 26 26 27 27 28 28 29 30 29 29 29 31 33 33 33 33 34 34 34 34 34 34 34 33 33 32 32 33 32 32 30 29 29 27 27 27 27 27 27 27 26 26 27 26 24 20 18 16 17 19 21 23 23 23
26 26 27 27 27 27 27 28 27 27 25 24 24 26 27 27 28 28 29 28 29 29 29 29 29 31 32 33 32 32 33 33 33 33 33 34 34 34 33 33 32 32 33 33 32 30 29 28 27 26 26 26 26 26 26 25 25 26 26 24 20 15 12 12 14 16 18 19 19
26 26 26 27 27 28 28 28 28 27 26 24 25 27 28 28 29 29 29 29 28 29 29 29 30 32 32 32 31 32 32 33 33 33 33 33 34 34 33 33 32 32 33 33 32 31 29 28 27 26 25 25 25 25 25 25 25 26 26 23 20 14 9 9 11 11 10 10 11
27 27 27 27 27 28 29 29 28 27 26 25 26 27 28 29 29 29 29 29 28 29 30 30 31 31 31 31 30 30 31 31 32 32 32 33 33 33 34 33 32 32 33 34 33 31 30 29 27 26 26 25 25 25 26 25 25 25 25 23 18 12 6 6 8 8 5 1 3
27 27 28 28 28 29 29 29 28 26 26 26 27 28 29 29 29 29 29 29 29 30 30 30 31 31 31 30 29 30 30 31 31 31 31 32 31 32 33 33 32 32 33 33 33 32 30 29 27 27 27 26 25 25 24 23 23 23 24 22 18 12 7 4 5 6 6 5 5
27 27 28 28 29 29 29 29 28 26 26 26 27 28 29 29 30 29 29 29 30 30 30 30 31 31 30 29 29 29 30 30 30 30 30 31 31 32 33 33 32 32 32 32 32 31 29 28 28 28 28 27 24 21 20 20 21 22 22 22 19 14 10 7 6 5 4 5 7
26 27 28 28 29 30 29 29 28 27 26 27 28 29 30 30 30 30 30 30 31 31 30 30 30 30 29 28 28 29 30 30 30 30 30 30 31 33 33 33 32 31 31 32 32 31 29 28 28 29 29 28 25 23 20 19 19 20 20 20 19 16 13 11 9 8 7 6 5
26 27 28 29 29 30 30 29 28 27 27 28 29 30 30 30 30 30 30 31 31 31 30 30 30 29 28 28 28 29 30 30 29 30 30 30 31 33 34 34 33 32 30 31 31 31 30 30 30 30 29 28 26 25 24 21 19 18 18 19 19 19 17 15 13 11 11 10 7
26 27 28 29 30 30 29 29 28 27 27 29 30 30 31 30 30 30 30 30 31 30 30 30 30 29 28 27 27 29 30 30 29 30 30 30 31 32 33 34 35 33 31 30 30 30 31 31 31 30 29 29 28 27 26 24 21 18 16 15 16 18 19 19 17 15 14 13 11
26 27 28 29 29 29 29 29 28 27 28 29 30 31 31 30 30 30 30 31 30 31 31 31 31 30 28 26 27 29 30 30 30 30 31 32 32 32 32 33 35 34 32 30 29 29 30 31 31 31 30 29 29 28 27 26 24 21 19 16 13 11 14 18 20 20 19 17 15
26 27 28 29 30 30 29 29 27 27 29 30 32 32 32 31 31 31 30 30 30 31 31 32 32 31 29 27 27 29 30 30 31 31 32 32 33 32 32 33 34 34 33 30 29 28 29 30 31 31 31 30 30 29 28 27 26 24 22 20 18 15 12 11 14 19 22 21 19
26 27 28 29 30 31 31 30 29 29 30 32 33 33 33 32 32 32 31 30 31 31 32 33 33 32 30 29 29 30 31 32 32 32 33 33 33 33 33 33 33 34 33 31 28 27 27 28 29 30 31 31 30 29 29 28 28 26 25 23 21 19 18 15 10 9 14 19 19
26 27 28 29 30 31 31 31 30 31 32 33 34 34 34 34 34 33 32 31 31 31 32 33 32 31 31 31 30 30 31 32 32 33 34 34 34 34 34 34 33 33 33 31 28 26 25 27 28 29 29 30 30 29 29 29 29 28 27 27 26 24 22 20 17 12 5 7 11
26 27 28 29 30 31 31 31 31 31 32 34 35 36 36 36 35 35 34 33 32 31 31 32 32 32 32 32 31 30 30 31 32 32 33 34 35 35 35 35 34 34 33 32 28 25 24 25 26 27 28 28 29 29 29 29 29 29 29 29 29 27 26 25 22 19 15 8 2
27 28 29 29 30 31 31 30 31 31 33 34 36 37 37 37 36 36 35 34 33 32 32 32 32 32 32 32 32 31 31 31 31 31 33 34 34 35 35 35 35 34 33 32 30 26 23 23 24 25 26 27 27 27 28 28 28 28 28 28 29 29 28 27 26 24 21 17 14
27 28 29 29 30 30 30 30 30 31 33 35 36 37 38 38 37 36 35 34 33 32 32 32 32 32 32 32 32 31 31 30 30 31 32 33 33 34 34 35 35 35 34 33 32 27 22 21 22 23 24 25 26 26 26 26 27 27 27 27 28 28 28 28 27 26 24 23 22
28 28 29 29 29 30 30 30 30 31 33 35 36 38 39 39 37 36 35 34 33 32 32 31 31 31 31 31 31 31 31 31 31 31 32 32 33 33 34 34 35 35 34 34 33 28 22 18 21 23 23 24 25 25 24 25 25 26 26 26 26 27 27 28 27 27 26 25 26
29 29 29 29 30 31 30 30 31 32 33 35 36 38 39 39 38 36 35 34 33 33 32 31 31 31 31 30 30 30 30 31 31 32 32 33 33 33 33 34 34 34 34 34 35 28 19 16 20 23 24 24 24 24 23 23 23 24 24 25 25 26 26 27 27 27 26 26 26
29 29 29 30 31 32 31 31 31 32 33 34 36 37 38 39 38 37 35 34 34 33 32 31 31 31 30 30 29 30 30 30 31 32 33 33 33 33 33 33 33 33 34 35 36 26 14 14 20 24 25 24 24 23 23 22 22 22 23 23 24 25 25 25 26 26 26 26 26
29 30 31 31 32 32 32 31 31 32 33 34 35 37 38 39 38 37 36 35 34 33 32 31 31 30 29 29 30 30 30 30 30 31 32 33 33 33 32 32 33 33 34 36 34 21 12 16 19 23 24 24 24 23 22 22 21 21 22 22 23 24 24 24 25 25 25 25 25
30 31 32 33 33 33 32 31 31 32 32 33 35 36 38 38 37 36 36 35 34 33 32 31 31 30 28 29 30 31 31 30 30 30 31 32 32 32 32 32 32 33 35 37 27 17 16 18 19 21 23 24 23 23 22 21 21 21 21 22 22 23 24 24 24 24 25 25 25
31 32 33 33 34 33 32 32 32 32 32 33 34 36 37 37 36 36 35 34 33 33 32 31 30 29 28 29 30 31 31 30 30 30 31 31 31 31 31 31 32 34 36 36 23 16 18 18 18 19 21 22 22 21 21 20 20 21 22 22 23 23 23 23 23 24 24 25 25
31 33 34 34 34 33 33 32 32 32 31 32 33 35 36 36 36 35 34 34 33 32 31 30 30 29 28 29 30 31 31 30 30 30 30 31 31 30 30 31 33 34 36 35 22 16 17 18 17 17 19 20 21 20 19 19 20 21 22 23 23 23 23 23 23 23 23 24 25
32 33 34 34 34 33 33 33 32 31 30 31 33 35 36 36 35 34 34 33 32 31 29 29 29 30 30 30 31 31 30 30 29 30 30 31 30 30 30 31 33 35 36 35 24 17 16 17 16 16 17 18 19 18 18 18 19 21 22 22 23 23 24 24 24 23 23 23 23
33 34 34 34 34 34 33 33 31 29 29 30 34 36 36 35 34 33 33 32 31 29 28 30 30 31 31 32 31 30 30 29 29 29 30 30 30 30 30 31 34 35 36 36 27 19 15 16 16 16 16 17 17 17 16 17 18 20 21 22 23 24 24 24 24 24 23 22 22
33 33 33 34 34 33 33 33 30 28 28 31 34 36 35 34 33 32 31 30 29 28 29 31 32 32 32 32 31 30 30 29 28 28 29 30 29 29 30 31 33 34 34 35 31 22 17 17 17 16 16 16 16 15 15 16 18 20 21 22 23 24 24 24 24 24 23 22 22
33 33 33 33 33 33 33 32 29 27 28 31 34 35 35 34 33 32 31 29 27 28 30 31 32 32 33 32 31 31 29 28 27 27 28 29 30 29 29 30 32 33 33 34 33 27 20 16 16 16 16 16 15 15 15 16 18 20 21 22 23 24 25 25 25 25 24 23 21
32 32 33 33 33 33 33 32 28 27 28 32 34 34 34 34 33 33 31 29 27 27 29 31 31 31 32 31 31 30 29 27 26 27 28 29 30 29 28 28 31 31 31 32 33 30 23 16 15 15 15 15 14 14 14 16 18 20 21 22 23 24 24 25 25 25 24 23 21
32 32 32 33 33 33 33 31 27 26 29 32 34 34 34 33 33 32 31 28 27 28 29 30 30 30 30 30 30 29 28 26 25 26 28 29 30 29 27 27 29 31 30 30 32 31 26 17 14 14 15 15 14 13 13 14 16 18 19 20 21 22 23 23 23 23 23 22 20
32 32 32 32 33 33 32 29 27 27 30 33 34 34 34 33 32 31 30 28 27 29 30 31 31 31 31 31 30 28 27 26 26 25 26 27 29 28 27 27 29 30 30 29 30 31 29 22 15 12 14 15 14 13 12 12 14 15 17 18 19 20 21 21 21 21 21 21 19
31 31 31 32 33 33 31 28 28 29 32 33 33 33 33 33 32 31 29 28 28 30 31 31 31 31 31 31 30 28 27 26 25 25 25 25 27 28 28 28 29 30 29 28 29 30 31 28 18 12 11 13 14 13 12 11 12 13 15 17 18 19 19 18 19 19 19 19 18
31 31 31 31 32 31 30 28 29 31 32 32 32 32 32 32 32 31 30 28 29 31 31 31 31 31 31 31 30 28 27 26 24 24 24 24 26 27 28 28 30 30 29 28 28 29 30 30 25 16 10 11 12 13 12 12 12 13 14 16 17 18 17 17 16 16 17 17 17
30 30 30 31 31 30 29 28 29 31 32 32 31 31 31 31 31 30 29 28 29 30 30 30 30 31 30 30 28 27 27 26 25 24 23 24 25 26 26 28 30 30 29 28 28 28 29 29 30 24 15 10 11 12 12 11 12 13 15 16 17 17 16 15 15 15 15 15 16
30 30 30 30 30 29 27 27 29 30 32 32 31 30 30 30 29 29 29 29 29 29 29 29 30 30 30 28 27 27 26 26 26 25 24 24 25 25 25 28 29 30 29 28 27 27 27 27 30 28 21 12 10 11 11 11 12 13 15 16 16 16 16 15 14 14 14 15 16
30 29 29 29 29 27 26 26 28 30 32 31 31 30 29 28 29 29 29 30 30 29 28 28 29 30 29 27 26 25 25 26 27 28 26 25 25 25 25 28 29 30 29 28 26 26 26 26 27 28 24 15 12 11 10 11 11 13 15 16 16 15 15 14 14 14 15 15 17
30 29 29 29 28 26 25 25 28 30 32 32 30 28 28 28 29 29 29 29 30 29 28 28 29 30 29 27 25 24 24 25 27 28 28 26 26 26 27 29 29 29 29 28 26 25 25 25 25 26 25 18 14 11 9 9 11 13 15 15 14 14 14 14 14 15 16 16 17
Wind_Direction
344 343 341 341 341 341 340 338 337 335 334 332 330 329 329 330 330 329 329 329 328 327 326 326 325 325 326 326 328 329 329 329 328 327 326 324 323 321 320 319 316 314 312 310 308 306 305 304 303 301 299 297 296 295 294 293 291 290 288 286 285 282 279 275 272 270 269 268 267
343 342 342 341 341 341 340 339 337 336 334 332 330 330 331 331 330 330 330 330 329 327 327 326 326 326 327 329 331 331 331 331 330 330 328 327 326 324 323 322 320 319 316 313 309 306 303 301 300 298 297 296 295 294 294 293 292 291 289 287 285 283 279 275 273 271 269 268 268
343 343 342 341 341 341 341 339 338 336 334 333 332 332 332 332 331 330 329 329 329 328 328 327 327 328 329 331 332 333 333 333 333 332 330 329 328 327 326 325 325 325 323 319 314 308 304 300 298 296 294 294 294 293 293 293 293 291 289 288 285 283 281 279 278 275 272 269 267
344 343 342 341 341 342 341 339 337 336 334 333 332 333 333 333 332 330 329 329 329 329 329 329 328 329 331 332 333 334 335 336 335 334 333 332 330 329 329 329 329 329 328 325 319 313 307 302 298 294 292 291 291 291 291 292 292 291 289 286 284 283 284 284 283 281 277 272 268
344 344 343 341 341 341 341 340 338 336 334 333 333 333 333 333 332 331 330 330 330 330 330 330 330 330 332 333 334 335 336 337 337 336 335 334 333 332 332 333 333 333 332 329 325 320 314 307 300 294 291 289 289 289 289 291 292 291 288 284 282 285 289 290 288 285 281 276 269
343 343 342 342 341 342 341 340 338 336 334 333 333 333 333 333 332 331 330 330 330 331 331 331 331 332 333 334 334 335 336 337 338 337 337 336 336 335 335 335 335 335 335 333 330 326 320 314 305 297 292 290 288 288 289 290 290 288 284 279 280 286 295 298 295 290 284 278 270
343 343 342 342 342 342 341 340 338 336 335 334 334 334 334 333 331 331 331 331 331 332 333 332 332 332 333 333 334 336 337 337 337 338 338 338 337 338 338 337 337 338 338 337 334 330 325 320 311 302 295 291 289 288 288 289 289 286 281 275 276 284 302 317 311 299 287 276 264
344 344 343 342 342 342 341 340 338 337 336 336 335 335 334 333 332 331 331 332 332 333 333 333 332 332 332 333 335 336 337 337 337 338 338 338 339 339 340 339 339 340 341 340 338 335 331 326 318 309 300 293 289 287 287 288 288 284 279 272 271 277 300 330 333 319 293 265 245
346 346 345 344 344 343 341 340 339 338 337 336 336 335 335 334 334 333 332 332 332 333 334 333 332 332 333 334 336 338 338 338 337 337 338 338 339 341 341 341 341 342 344 344 343 340 338 334 328 319 309 299 290 286 285 285 286 284 278 271 265 265 282 327 343 344 337 285 192
347 347 346 346 345 343 342 340 340 339 338 337 337 336 336 336 335 334 333 332 332 333 334 333 333 333 334 335 337 338 339 339 338 338 338 338 339 342 343 343 344 345 346 347 347 347 345 342 337 332 325 315 302 291 286 286 286 284 278 270 261 254 255 283 319 341 4 30 56
347 348 347 347 345 344 343 342 341 340 340 339 338 338 337 337 336 335 334 334 334 334 334 335 335 334 334 336 338 339 340 340 340 339 339 339 340 342 344 346 346 347 349 351 352 352 350 348 345 343 341 337 328 316 304 297 292 287 280 269 258 249 243 249 267 290 324 1 22
347 348 348 347 346 345 345 344 342 341 341 340 339 339 338 337 337 336 336 335 335 335 335 336 336 335 335 336 338 340 340 341 341 341 341 341 340 342 345 347 348 349 350 353 356 357 356 354 352 351 351 350 349 344 335 323 309 297 285 270 256 246 240 241 247 258 273 296 332
347 347 347 347 347 347 346 345 344 343 342 341 340 340 339 338 338 338 337 336 336 336 336 337 337 336 336 337 339 340 341 342 342 342 342 342 342 343 344 347 349 350 350 353 357 0 1 1 360 358 356 356 355 354 351 345 334 319 301 281 259 245 238 237 240 247 256 267 276
346 347 347 347 347 347 347 347 346 344 342 341 340 340 339 339 339 339 338 337 337 337 337 338 338 338 337 338 340 341 342 343 343 344 344 344 344 344 345 346 349 350 350 351 357 1 5 6 6 4 1 360 359 358 359 359 355 348 334 311 277 253 241 238 238 241 247 255 259
345 346 346 347 347 347 347 347 346 344 342 341 340 340 339 339 340 340 339 338 338 338 339 339 339 338 338 339 341 343 343 344 344 345 346 346 346 346 345 346 349 350 350 350 354 0 6 9 10 9 7 5 3 3 4 5 5 5 2 355 337 301 268 252 243 241 243 248 253
345 345 345 346 346 347 347 346 345 343 342 341 341 341 341 340 341 341 341 339 339 339 340 340 340 339 339 339 342 344 345 345 345 346 346 346 347 346 346 345 347 350 351 350 352 358 4 9 12 12 12 10 9 8 8 9 10 11 11 10 7 359 339 304 266 248 242 242 246
344 344 344 344 345 345 346 345 344 343 342 342 342 343 343 342 342 342 342 341 340 340 340 342 343 342 340 339 342 345 346 346 346 346 346 346 346 346 345 345 346 349 351 351 350 354 1 8 11 13 14 14 13 12 11 12 14 15 16 16 16 16 13 6 341 282 248 238 237
344 344 343 343 344 344 344 344 343 343 343 343 344 344 344 344 344 343 343 343 343 341 341 342 344 344 342 340 341 343 345 345 345 345 346 346 346 346 345 345 346 348 351 352 350 352 358 5 10 12 13 14 15 15 15 15 16 18 20 22 23 24 23 22 19 10 335 243 227
343 343 343 343 343 343 343 343 343 343 343 344 346 346 347 347 346 346 346 346 345 343 342 343 344 345 345 343 341 342 343 343 343 344 345 346 346 346 346 345 346 347 349 352 351 351 355 4 9 13 14 15 15 16 17 17 17 18 21 24 27 29 28 27 27 25 24 29 85
344 344 343 342 342 342 343 343 343 343 344 346 348 348 348 348 348 348 348 347 347 346 345 344 344 345 346 346 344 342 342 342 342 343 344 346 346 346 346 345 345 346 347 349 349 349 352 2 9 13 16 17 17 17 18 17 17 17 19 23 27 30 31 31 29 28 29 34 48
344 343 342 342 342 342 343 343 343 344 346 347 348 349 349 349 349 349 348 348 348 348 347 345 344 345 345 346 344 343 342 342 341 342 343 344 344 344 345 345 345 345 346 346 346 345 348 360 10 15 18 20 21 21 20 19 17 17 18 20 24 29 32 33 31 30 29 33 42
343 343 342 342 342 343 344 344 345 346 347 348 349 349 350 350 349 349 349 349 349 349 348 346 344 344 344 344 344 343 342 342 342 343 343 343 343 344 344 345 345 346 345 344 343 341 345 360 12 18 20 22 24 25 24 23 19 17 17 19 22 27 30 32 32 31 30 32 37
344 343 343 343 344 345 346 345 346 347 348 349 349 349 349 349 349 350 350 350 351 350 349 346 345 344 343 343 343 342 342 342 342 343 344 343 343 343 344 345 345 345 344 342 340 338 344 6 16 20 22 24 26 27 28 26 22 18 16 17 21 25 28 30 31 31 32 32 34
344 344 344 345 346 347 347 347 348 348 348 349 349 349 349 349 349 350 350 351 352 351 350 347 345 344 343 343 343 342 342 342 342 342 343 343 343 344 344 345 344 344 342 341 338 338 355 23 22 21 23 24 26 28 29 28 25 21 18 17 19 22 26 29 31 32 33 33 34
345 345 346 347 348 349 349 349 348 348 349 349 348 348 348 348 349 349 350 351 352 352 350 347 346 345 344 343 343 343 343 342 342 341 341 342 343 344 345 345 344 343 341 340 338 347 26 36 26 22 23 24 26 27 28 29 27 25 22 21 20 22 24 27 31 33 35 36 36
346 346 348 349 349 349 349 349 349 349 349 349 348 348 348 348 348 349 350 351 352 351 350 347 346 344 343 342 343 343 344 343 343 342 341 341 342 344 345 345 344 342 341 340 345 12 43 34 28 24 23 25 26 28 28 28 27 27 27 26 25 24 24 25 28 32 36 38 39
347 348 348 349 350 350 349 349 350 350 349 348 348 347 347 347 348 349 350 350 351 350 349 347 345 344 342 342 343 344 344 344 344 343 342 342 342 344 345 344 344 342 342 342 352 23 39 30 28 25 23 25 27 29 29 29 28 29 29 29 28 27 26 25 26 30 35 39 41
348 348 349 350 350 349 349 350 350 350 349 348 347 347 347 347 348 349 349 350 351 350 348 346 344 343 343 343 343 344 345 346 345 344 343 343 344 345 345 344 344 343 343 345 355 18 30 27 27 25 24 25 28 30 31 31 31 31 32 31 30 30 29 28 28 30 34 38 42
348 349 349 349 348 349 349 349 349 348 347 346 346 347 347 348 348 349 349 350 350 348 346 344 343 343 343 343 344 345 346 348 347 346 345 344 345 346 346 345 346 345 344 346 354 12 26 26 27 27 25 25 27 29 30 33 35 35 34 33 33 32 31 30 30 32 34 38 41
349 350 349 348 348 348 348 348 348 347 346 346 347 347 348 348 348 349 349 349 348 345 343 343 344 343 343 343 344 345 346 348 348 347 346 345 345 346 346 347 348 347 346 346 354 9 25 25 26 27 26 25 25 28 31 35 38 39 38 37 37 36 35 33 32 32 34 39 42
349 349 348 347 347 347 347 348 348 347 346 346 347 348 348 348 348 348 348 348 345 343 343 345 345 345 345 345 345 346 346 347 348 347 345 344 345 346 347 348 350 349 347 347 355 8 22 24 25 26 25 23 25 29 35 40 43 43 42 40 40 40 38 36 34 33 35 39 42
348 348 348 347 346 346 347 348 348 346 346 347 348 348 348 348 347 348 348 348 344 342 343 345 346 345 345 345 345 346 346 346 345 344 344 344 344 346 347 349 351 351 349 348 355 5 17 23 24 24 24 21 25 31 40 45 47 45 44 43 42 42 41 39 36 35 36 39 44
347 347 347 346 346 347 348 348 347 346 346 347 348 348 348 348 348 349 349 348 344 342 342 344 344 344 343 343 343 344 344 344 343 342 342 343 344 345 347 349 351 352 350 348 352 1 12 22 22 22 21 19 22 30 39 45 46 44 42 41 41 42 42 40 38 36 36 39 45
346 346 346 346 346 347 348 348 346 345 346 347 347 347 348 348 348 348 348 346 343 342 342 344 344 344 343 343 343 343 343 342 342 342 342 342 343 345 347 349 351 353 351 348 349 356 4 15 19 19 16 13 14 20 29 35 37 36 34 34 36 38 40 41 39 37 35 36 41
344 344 344 345 346 347 348 347 346 346 346 346 346 347 347 348 347 347 346 345 343 343 344 346 346 346 346 347 347 345 343 342 341 341 341 341 342 344 345 347 351 354 354 349 349 352 358 7 14 15 12 10 8 9 13 20 24 25 24 24 27 31 35 38 39 37 34 32 36
344 343 343 344 345 347 348 347 346 346 345 345 345 345 346 347 347 347 346 345 344 345 346 347 347 347 347 347 347 346 344 342 341 341 341 342 343 344 344 346 350 354 355 350 349 350 353 1 7 11 11 10 8 6 7 14 20 21 20 19 20 23 28 33 37 38 35 30 31
343 343 343 343 344 346 347 347 347 346 345 344 344 344 345 345 345 347 347 346 346 346 346 346 346 346 345 345 345 345 346 346 344 343 344 345 345 344 344 345 349 353 354 351 350 349 351 355 3 9 12 11 10 7 7 13 23 28 27 24 21 21 24 30 36 39 37 31 28
343 343 343 343 343 344 346 347 347 346 344 343 343 343 344 344 345 346 346 346 346 345 344 345 345 345 345 345 345 347 349 351 350 348 348 349 348 346 345 345 349 352 354 353 351 350 350 351 359 6 11 13 13 10 7 12 23 32 34 31 26 24 25 30 36 41 40 35 29
344 344 343 343 342 343 344 346 346 345 344 343 342 342 343 344 344 345 346 348 348 346 344 343 344 345 347 347 347 349 352 354 356 356 354 352 351 349 347 348 350 353 355 354 352 352 351 351 355 3 11 20 20 13 8 11 22 31 35 33 30 28 29 33 38 41 42 40 35
344 345 344 344 343 342 342 344 345 345 344 343 342 342 342 342 343 345 348 350 350 349 346 344 345 347 349 349 349 350 352 355 358 0 0 358 355 353 352 352 353 355 357 356 354 354 353 353 354 0 8 20 24 18 11 13 23 30 34 33 32 31 31 35 39 41 42 41 39
345 345 345 344 343 341 340 342 343 345 345 344 342 341 341 342 345 348 350 351 351 350 348 346 347 350 352 352 351 350 350 353 357 1 3 2 0 358 357 357 357 358 359 359 358 357 356 356 357 359 4 12 21 22 18 20 28 33 34 35 35 34 35 37 40 42 42 41 40
Height
841 839 838 836 834 832 831 829 827 825 823 821 819 817 814 813 810 808 806 804 802 800 798 795 793 791 788 786 784 782 779 777 775 773 770 768 766 763 761 759 757 755 753 751 749 748 746 744 743 742 740 738 736 734 733 732 730 729 728 727 725 724 723 722 721 721 720 719 718
841 839 838 836 834 833 831 829 827 825 823 821 819 817 815 813 811 808 806 804 802 800 798 795 793 791 788 786 784 782 779 776 774 771 769 767 764 762 760 758 756 754 752 750 748 746 744 742 741 739 738 736 734 732 731 729 728 727 726 724 723 722 721 719 719 718 718 716 715
841 839 838 836 834 833 831 828 827 825 823 821 819 817 815 813 811 808 806 804 802 800 798 795 793 790 788 785 783 781 779 776 773 771 768 766 763 761 759 757 754 752 750 748 746 744 742 741 739 738 736 734 732 730 728 727 726 725 723 722 721 719 718 717 717 716 715 713 711
841 839 838 836 834 833 831 829 827 825 823 821 819 817 815 813 811 809 806 804 802 799 797 795 792 790 788 785 783 781 778 776 773 770 768 765 763 760 758 756 753 751 749 747 744 743 740 739 737 735 733 732 730 728 727 725 724 723 721 720 718 717 716 714 713 713 711 710 708
841 839 838 836 834 833 831 829 827 825 823 821 818 817 815 813 811 808 806 803 801 799 797 794 792 790 788 785 783 780 778 775 773 770 767 764 762 759 757 755 753 750 748 745 743 741 738 737 735 733 731 730 728 727 725 724 723 721 719 718 716 715 713 712 711 709 708 707 706
841 839 838 836 834 833 831 829 827 825 823 821 818 817 815 813 810 808 806 803 801 798 796 794 792 789 787 784 782 780 777 775 772 770 767 764 762 759 757 754 752 749 747 744 741 739 737 735 733 731 729 728 726 724 723 722 721 719 718 716 715 713 712 710 708 707 706 705 704
842 840 838 836 834 833 831 829 827 824 823 820 818 816 814 812 810 808 805 803 800 798 795 793 791 788 786 784 782 779 777 774 772 769 767 764 762 759 757 754 751 749 746 743 740 738 735 733 731 729 727 726 724 722 721 720 719 718 717 715 713 712 711 709 708 706 705 703 703
842 840 838 837 835 833 831 828 826 824 822 820 818 816 814 812 809 807 804 802 800 798 795 793 791 788 786 784 782 779 777 774 772 769 767 764 762 759 756 753 751 748 746 743 739 737 734 732 730 728 726 724 722 720 719 718 718 716 715 714 713 712 710 709 708 707 705 704 703
842 840 838 836 834 833 830 828 826 824 822 820 818 816 813 811 809 807 804 802 799 798 795 793 790 788 786 784 782 779 777 775 772 769 767 765 762 759 756 753 751 748 745 742 739 736 733 731 729 727 725 723 720 718 717 717 716 715 714 713 712 711 710 709 708 708 706 705 703
842 840 838 836 834 832 830 828 826 823 822 820 818 815 813 811 808 806 804 802 799 797 795 793 790 788 785 783 782 779 777 775 773 770 768 765 763 760 757 754 751 748 746 743 739 736 733 731 729 727 724 722 719 717 716 715 714 714 713 711 711 710 709 709 709 708 708 706 705
842 840 838 836 834 832 830 827 825 823 821 819 817 815 813 810 808 806 804 802 799 797 794 792 790 788 785 783 782 779 777 775 773 770 768 765 763 760 758 755 752 749 746 743 740 737 734 732 729 726 723 721 719 717 715 714 713 712 711 710 709 709 708 708 708 708 708 707 705
842 840 838 837 834 832 830 827 825 823 821 819 817 814 812 810 808 806 803 801 798 796 794 792 790 788 786 783 782 779 777 775 773 770 768 765 763 760 758 755 752 750 747 744 741 738 736 733 730 727 724 721 719 717 716 714 713 711 710 709 708 708 707 707 707 707 707 706 705
843 841 839 837 834 832 830 828 825 823 821 819 817 814 812 810 808 805 803 800 798 796 794 792 790 788 786 784 782 780 777 775 773 770 768 766 763 760 757 755 752 750 748 745 743 740 737 734 731 728 725 723 720 718 716 714 712 710 709 708 707 706 706 706 706 706 706 705 705
843 841 839 837 834 832 830 828 825 823 821 819 817 814 812 810 808 805 803 801 798 796 794 792 789 787 786 784 782 780 778 775 773 770 768 766 763 760 758 755 752 750 748 746 744 741 738 736 733 730 727 724 722 719 717 714 712 710 709 707 706 705 705 705 705 705 704 704 704
843 841 839 837 835 833 830 828 826 824 821 819 817 814 812 810 808 805 803 801 798 796 794 792 789 787 785 784 782 780 777 775 773 770 768 765 763 760 758 755 753 750 748 747 745 743 740 737 734 731 728 726 723 720 718 716 713 711 709 708 706 705 705 704 704 703 703 703 703
843 841 839 837 835 833 831 828 826 824 822 819 817 814 812 810 808 805 803 801 798 796 794 792 789 787 785 783 782 780 777 774 772 770 768 765 763 760 758 756 753 751 749 747 745 743 741 738 735 733 730 728 725 722 719 717 715 713 710 708 707 705 704 704 703 703 702 701 702
843 841 839 837 834 833 831 829 827 824 822 819 817 814 812 810 808 805 803 801 799 796 794 792 789 787 785 783 781 779 777 774 772 770 768 765 763 761 758 756 754 751 749 747 746 744 742 739 737 734 731 729 726 724 721 719 717 715 713 710 708 706 704 703 703 702 701 700 700
843 841 838 836 834 832 830 828 826 824 822 819 817 814 812 810 808 805 803 801 799 797 794 792 789 787 785 783 781 779 777 775 773 770 768 765 763 761 758 756 754 752 750 748 746 744 743 740 738 735 732 730 728 725 723 721 719 717 715 712 710 708 706 704 703 702 702 700 699
843 840 838 836 834 832 830 828 826 824 822 819 817 814 812 809 807 805 803 800 799 797 794 792 789 787 785 783 781 779 778 775 773 770 768 765 763 761 758 756 754 752 750 748 746 745 743 741 738 736 733 731 728 726 724 722 720 718 717 714 712 710 708 706 705 703 703 702 700
843 840 838 837 834 832 830 828 826 824 822 819 817 814 812 809 807 804 802 800 798 796 794 792 790 788 785 783 781 779 778 776 773 771 768 766 763 761 758 756 754 752 749 747 746 745 743 742 739 737 734 731 729 728 726 724 722 720 718 716 714 712 710 708 707 706 705 703 702
842 840 838 837 834 832 830 828 826 824 822 819 817 814 811 809 806 804 802 800 798 796 794 792 790 788 785 783 781 779 778 775 773 771 768 766 763 761 759 756 754 752 749 747 745 744 744 742 740 737 735 732 730 728 727 725 724 722 720 718 717 715 713 711 710 708 707 706 703
842 840 838 836 834 832 830 828 826 824 821 819 816 814 811 809 806 804 802 800 798 796 794 792 790 788 786 783 781 779 777 775 773 771 768 766 764 761 759 757 754 752 749 747 745 744 744 742 740 738 736 733 731 729 728 727 725 724 722 720 718 716 714 713 712 711 709 707 705
842 840 838 836 834 832 830 828 825 823 821 818 816 813 811 809 806 804 802 799 798 795 793 792 790 788 786 784 782 780 777 775 773 771 768 766 764 761 759 757 754 752 749 747 744 744 744 742 740 738 736 734 732 731 729 728 727 725 723 722 720 718 716 714 713 712 711 709 707
842 840 838 836 833 831 829 827 825 823 821 818 816 814 811 809 806 804 801 799 797 795 793 792 790 788 786 784 782 780 778 775 773 770 768 766 763 762 759 757 754 752 750 747 744 744 743 742 740 738 737 735 733 732 730 729 728 726 725 723 721 719 718 716 715 714 712 711 709
842 839 837 835 833 831 829 827 825 823 821 818 816 814 811 809 806 804 802 799 797 795 793 791 790 788 786 783 782 779 778 775 773 771 768 766 763 762 759 757 755 753 750 748 745 744 743 742 740 739 737 736 734 733 731 730 729 728 726 725 723 721 719 718 717 716 714 713 712
841 839 837 835 833 830 828 827 825 823 820 818 816 814 811 809 807 804 802 799 797 795 793 792 789 788 786 784 782 779 778 776 773 771 769 766 764 762 760 758 755 753 751 748 747 746 744 743 741 739 738 737 735 733 732 731 730 729 728 726 725 723 721 720 718 717 716 715 713
841 839 837 834 832 830 828 827 824 822 820 818 816 814 812 809 807 804 802 800 798 795 793 792 790 788 786 784 782 780 778 776 774 772 769 767 765 763 761 758 756 754 752 750 749 747 745 743 742 741 739 738 736 735 733 733 731 730 729 728 726 725 723 722 720 719 718 716 715
841 838 836 834 832 830 828 826 824 822 820 818 816 814 812 809 807 805 803 800 798 796 794 792 790 788 786 784 782 780 778 776 774 772 770 768 765 763 761 759 757 754 753 752 750 748 746 745 743 742 740 738 737 736 735 734 733 732 731 729 728 727 725 724 722 721 719 718 717
841 838 836 834 832 830 828 826 824 822 820 818 817 814 812 809 807 805 803 800 798 796 794 793 791 789 787 785 783 780 778 777 775 773 770 768 766 764 762 760 757 755 753 752 751 749 747 746 745 743 741 740 738 737 736 735 734 733 732 731 730 728 727 726 724 723 721 720 719
841 838 836 834 832 830 828 826 824 823 821 819 817 814 812 809 807 805 803 801 799 797 796 794 792 789 787 785 783 781 779 777 775 773 771 768 766 764 763 760 758 756 754 752 751 750 748 747 746 744 743 741 739 738 738 737 736 735 734 733 731 730 728 727 726 724 723 722 721
841 839 837 834 832 830 828 826 824 823 821 819 817 814 812 809 808 806 804 802 800 798 796 794 792 789 787 785 783 782 779 777 776 773 772 769 767 765 763 761 759 757 755 753 752 751 749 748 747 746 744 742 741 740 739 738 737 736 735 734 733 731 730 729 728 726 725 724 723
841 839 837 834 833 830 828 826 824 823 821 819 817 814 812 810 808 806 804 802 800 798 796 794 792 789 787 785 783 782 780 778 776 774 772 770 768 766 764 762 760 758 756 754 753 751 750 748 748 747 745 744 743 742 741 740 739 738 737 735 734 733 732 730 729 728 727 726 725
841 839 837 835 833 830 828 826 825 823 821 819 817 815 813 810 808 806 804 803 801 799 797 794 792 790 788 786 784 782 780 779 777 775 773 770 768 767 765 763 761 759 758 756 754 752 750 749 748 748 747 745 744 743 742 741 740 739 738 737 736 734 733 732 731 730 729 728 727
841 839 837 835 833 831 828 827 825 823 822 819 817 815 813 811 808 806 804 803 801 799 797 795 793 791 789 787 785 783 781 779 778 776 773 771 769 767 766 764 763 760 758 757 755 753 751 750 749 748 748 746 745 744 744 743 742 741 739 738 737 736 735 733 733 732 731 730 729
841 839 837 835 833 831 829 827 826 824 822 819 817 815 813 811 809 807 805 803 802 800 797 795 793 792 790 788 786 784 782 780 778 777 774 772 769 768 766 765 763 761 759 758 756 754 753 751 750 749 748 747 746 745 745 744 743 742 741 740 738 737 736 735 734 733 732 732 731
842 839 838 835 833 831 829 828 826 824 822 820 818 815 813 811 809 808 806 804 802 800 797 795 793 792 790 788 786 784 783 781 779 777 775 773 770 768 767 765 764 762 760 758 757 755 753 752 750 748 748 747 746 746 745 745 744 743 742 741 740 738 738 737 735 734 733 733 732
842 840 838 836 834 832 830 829 827 824 822 820 818 816 814 812 809 808 806 804 802 800 798 796 794 792 790 788 786 785 783 781 780 778 776 774 772 769 768 766 764 763 761 759 758 756 754 752 751 749 747 747 746 746 746 745 744 744 743 742 741 740 739 738 737 736 735 734 733
842 840 838 836 834 832 831 829 827 825 823 820 818 816 814 812 810 808 806 805 803 801 798 796 794 793 791 789 787 785 783 782 780 779 777 775 773 771 769 767 765 763 761 760 758 757 755 753 751 749 748 747 747 746 746 746 745 744 743 743 742 741 740 739 738 737 736 735 734
842 840 838 837 834 833 831 829 828 826 823 821 818 817 814 813 811 809 807 805 803 802 800 798 795 793 792 790 788 786 784 783 781 779 778 776 774 773 770 768 765 763 762 760 759 758 756 754 752 750 748 747 747 747 746 746 746 745 744 743 743 742 741 740 739 738 737 736 735
842 840 838 837 835 833 832 830 828 826 824 822 819 817 815 813 811 809 807 805 804 802 800 798 796 794 792 791 788 787 785 783 782 780 779 777 775 773 772 769 766 764 762 761 759 758 757 755 753 751 749 747 747 747 747 746 746 746 745 744 743 743 742 741 740 739 738 737 736
842 840 838 837 835 833 832 830 828 826 824 822 820 818 816 814 812 809 808 806 804 803 801 799 797 794 793 791 789 787 786 784 783 781 779 778 776 774 772 770 767 765 763 762 760 759 758 756 754 752 750 748 748 748 747 747 746 746 745 745 744 744 743 742 741 741 740 739 738